Satellite-Ground Cal/Val Site Overpasses Predictions

Prediction of Satellite NPP Overpassing Cal/Val Site: Antarctic Dome C

Ground Cal/Val Site Location: Latitude: -75.10, Longitude: 123.35; Satellite-Ground Site NADIR distance within 100 km.

Table of predicted overpasses for the next 14.0 days since TLE Epoch: 8/28/2020
Interval Starting Time Ending Time Minimum Distance Time Minimum Distance (km)
1 08/30/2020 07:31:32 08/30/2020 07:32:01 08/30/2020 07:31:46 3.48
2 09/02/2020 14:55:01 09/02/2020 14:55:29 09/02/2020 14:55:15 21.84
3 09/03/2020 14:36:18 09/03/2020 14:36:33 09/03/2020 14:36:26 85.07
4 09/04/2020 07:37:51 09/04/2020 07:38:19 09/04/2020 07:38:05 34.32
5 09/05/2020 07:19:07 09/05/2020 07:19:26 09/05/2020 07:19:16 75.71
6 09/07/2020 15:01:22 09/07/2020 15:01:46 09/07/2020 15:01:34 58.97
7 09/08/2020 14:42:32 09/08/2020 14:42:57 09/08/2020 14:42:44 50.12
8 09/09/2020 07:44:13 09/09/2020 07:44:34 09/09/2020 07:44:24 69.68
